Stations météo

réclame
Mon MeteoGroup
Geilenkirchen, Allemagne (10500): Température de l'air & dewpoint: 16.11.2019 04:00:00 - 22.11.2019 04:00:00 (CET)Geilenkirchen, Allemagne (10500): Vitesse du vent: 16.11.2019 04:00:00 - 22.11.2019 04:00:00 (CET)Geilenkirchen, Allemagne (10500): Direction du vent: 16.11.2019 04:00:00 - 22.11.2019 04:00:00 (CET)Geilenkirchen, Allemagne (10500): reduced air pressure: 16.11.2019 04:00:00 - 22.11.2019 04:00:00 (CET)Geilenkirchen, Allemagne (10500): visibility: 16.11.2019 04:00:00 - 22.11.2019 04:00:00 (CET)
Date & Time tt [°C] td [°C] ff [km/h] ff [knt] dd ppp [hPa] vv [km]
22.11.2019 04:00:00 4,2 3,0 9 5 ESE 1005,3 10
22.11.2019 03:00:00 2,3 2,2 8 4 E 1005,6 9
22.11.2019 02:00:00 2,3 1,8 8 4 ENE 1005,8 9
22.11.2019 01:00:00 1,8 0,9 11 6 E 1005,8 8
22.11.2019 00:00:00 2,7 1,7 8 4 E 1005,8 9
21.11.2019 23:00:00 4,2 3,1 8 4 ESE 1006,2 10
21.11.2019 22:00:00 4,6 3,1 8 4 ESE 1006,2 10
21.11.2019 21:00:00 4,6 3,3 5 3 ESE 1006,4 10
21.11.2019 20:00:00 4,9 3,5 5 3 ESE 1006,5 10
21.11.2019 19:00:00 5,6 4,0 2 1 W 1006,4 10
21.11.2019 18:00:00 5,2 3,8 8 4 ESE 1006,4 9
21.11.2019 17:00:00 5,2 3,3 9 5 ESE 1006,8 10
21.11.2019 16:00:00 5,3 3,0 9 5 ESE 1007,0 10
21.11.2019 15:00:00 5,2 2,7 11 6 E 1007,1 10
21.11.2019 14:00:00 5,4 2,2 8 4 E 1007,4 10
21.11.2019 13:00:00 4,9 1,9 5 3 ENE 1007,9 10
21.11.2019 12:00:00 3,6 1,3 5 3 E 1008,7 10
21.11.2019 11:00:00 2,0 0,6 11 6 E 1009,3 10
21.11.2019 10:00:00 0,5 -0,1 9 5 E 1009,4 8
21.11.2019 09:00:00 -1,5 -2,0 9 5 E 1009,7 6
21.11.2019 08:00:00 -0,9 -1,2 15 8 E 1010,0 4,5
21.11.2019 07:00:00 -1,5 -1,9 8 4 E 1010,4 7
21.11.2019 06:00:00 -2,1 -2,1 9 5 E 1010,9 6
21.11.2019 05:00:00 -1,3 -1,8 5 3 ESE 1010,9 8
21.11.2019 04:00:00 -0,4 -1,1 13 7 E 1011,4 10
21.11.2019 03:00:00 0,1 -0,6 9 5 ESE 1011,7 10
21.11.2019 02:00:00 0,7 -0,1 11 6 ESE 1012,2 10
21.11.2019 01:00:00 0,7 -0,4 11 6 E 1012,8 10
21.11.2019 00:00:00 -0,3 -0,9 5 3 ESE 1013,3 10
20.11.2019 23:00:00 -0,3 -2,4 9 5 ESE 1013,7 10
20.11.2019 22:00:00 1,0 -1,4 5 3 E 1014,1 10
20.11.2019 21:00:00 2,0 -0,2 11 6 E 1014,5 10
20.11.2019 20:00:00 2,3 0,5 11 6 E 1014,8 10
20.11.2019 19:00:00 1,9 0,1 11 6 E 1015,0 10
20.11.2019 18:00:00 1,7 -0,2 15 8 E 1015,1 10
20.11.2019 17:00:00 4,7 0,8 15 8 ESE 1015,4 10
20.11.2019 16:00:00 5,3 1,5 15 8 ESE 1015,7 10
20.11.2019 15:00:00 6,1 1,5 16 9 E 1016,2 10
20.11.2019 14:00:00 6,4 1,6 21 11 E 1016,5 10
20.11.2019 13:00:00 6,5 1,7 18 10 E 1017,0 10
20.11.2019 12:00:00 6,1 1,9 15 8 E 1017,6 10
20.11.2019 11:00:00 5,0 1,5 15 8 E 1018,4 10
20.11.2019 10:00:00 4,5 1,3 2 1 ESE 1018,4 10
20.11.2019 09:00:00 1,5 0,1 5 3 E 1018,8 10
20.11.2019 08:00:00 1,8 0,5 4 2 ESE 1018,9 10
20.11.2019 07:00:00 0,2 -0,1 8 4 SE 1019,0 10
20.11.2019 06:00:00 0,3 0,2 0 0 N 1019,2 10
20.11.2019 05:00:00 -1,1 -1,2 2 1 SSE 1019,6 10
20.11.2019 04:00:00 -0,9 -0,9 4 2 SE 1019,5 8
20.11.2019 03:00:00 -1,0 -1,1 8 4 S 1019,9 10
20.11.2019 02:00:00 -0,9 -1,1 9 5 S 1019,8 10
20.11.2019 01:00:00 -1,3 -1,3 4 2 SSE 1020,1 10
20.11.2019 00:00:00 -0,4 -0,4 4 2 S 1020,1 10
19.11.2019 23:00:00 0,4 -0,1 2 1 S 1020,2 10
19.11.2019 22:00:00 0,6 -0,5 8 4 S 1020,0 10
19.11.2019 21:00:00 2,3 1,3 2 1 SSW 1019,8 10
19.11.2019 20:00:00 3,9 2,5 5 3 S 1019,3 10
19.11.2019 19:00:00 4,3 2,9 5 3 SSW 1019,1 10
19.11.2019 18:00:00 4,5 2,4 4 2 W 1018,8 10
19.11.2019 17:00:00 5,2 2,4 5 3 SSW 1018,5 10
19.11.2019 16:00:00 6,4 3,4 5 3 W 1018,1 10
19.11.2019 15:00:00 8,4 3,6 13 7 W 1017,6 10
19.11.2019 14:00:00 8,2 3,6 15 8 WSW 1017,4 10
19.11.2019 13:00:00 6,8 4,4 9 5 WSW 1017,5 10
19.11.2019 12:00:00 6,1 4,2 11 6 WSW 1017,4 10
19.11.2019 11:00:00 4,2 3,7 9 5 SW 1017,6 10
19.11.2019 10:00:00 4,1 3,4 9 5 WSW 1017,0 10
19.11.2019 09:00:00 4,1 3,1 11 6 WSW 1016,5 7
19.11.2019 08:00:00 4,1 2,9 11 6 WSW 1015,9 10
19.11.2019 07:00:00 4,0 2,9 13 7 SW 1015,4 10
19.11.2019 06:00:00 4,0 2,9 11 6 SW 1015,1 10
19.11.2019 05:00:00 3,9 3,0 11 6 SW 1014,5 10
19.11.2019 04:00:00 4,2 3,1 11 6 WSW 1014,1 10
19.11.2019 03:00:00 4,9 3,8 15 8 WSW 1013,8 10
19.11.2019 02:00:00 5,7 4,4 13 7 WSW 1013,2 10
19.11.2019 01:00:00 6,2 4,7 16 9 W 1012,7 10
19.11.2019 00:00:00 6,6 5,9 22 12 W 1012,1 10
18.11.2019 23:00:00 6,4 6,2 15 8 W 1011,3 10
18.11.2019 22:00:00 6,3 6,1 15 8 W 1010,4 4,0
18.11.2019 21:00:00 5,6 5,6 16 9 WSW 1009,9 5
18.11.2019 20:00:00 5,6 5,5 18 10 WSW 1009,1 7
18.11.2019 19:00:00 5,6 5,5 18 10 WSW 1008,9 6
18.11.2019 18:00:00 5,8 5,8 21 11 W 1008,7 5
18.11.2019 17:00:00 5,6 5,6 18 10 W 1008,4 3,3
18.11.2019 16:00:00 5,7 5,6 16 9 W 1008,1 3,2
18.11.2019 15:00:00 5,5 5,5 15 8 W 1007,5 4,0
18.11.2019 14:00:00 5,3 5,2 13 7 W 1007,6 4,0
18.11.2019 13:00:00 5,0 5,0 11 6 WNW 1007,5 2,5
18.11.2019 12:00:00 4,8 4,8 9 5 W 1007,7 2,5
18.11.2019 11:00:00 4,6 4,5 11 6 WNW 1007,8 2,5
18.11.2019 10:00:00 4,3 4,2 8 4 NW 1007,7 2,5
18.11.2019 09:00:00 4,0 3,8 11 6 NW 1007,8 6
18.11.2019 08:00:00 3,8 3,6 9 5 WNW 1007,5 5
18.11.2019 07:00:00 3,7 3,4 11 6 NW 1007,3 3,5
18.11.2019 06:00:00 3,5 3,5 11 6 NW 1006,9 5
18.11.2019 05:00:00 3,5 3,5 13 7 NNW 1006,9 9
18.11.2019 04:00:00 3,5 3,5 15 8 NNW 1006,6 6
18.11.2019 03:00:00 3,6 3,6 18 10 NNW 1007,1 7
18.11.2019 02:00:00 3,7 3,5 16 9 NNW 1006,6 7
18.11.2019 01:00:00 3,7 3,7 15 8 NNW 1007,6 7
18.11.2019 00:00:00 3,7 3,7 9 5 NW 1008,1 4,0
17.11.2019 23:00:00 3,6 3,6 9 5 NNW 1008,2 6
17.11.2019 22:00:00 3,7 3,7 9 5 NNW 1008,8 4,5
17.11.2019 21:00:00 3,9 3,3 5 3 NNW 1008,9 4,5
17.11.2019 20:00:00 - - - - - - -
17.11.2019 19:00:00 - - - - - - -
17.11.2019 18:00:00 - - - - - - -
17.11.2019 17:00:00 - - - - - - -
17.11.2019 16:00:00 - - - - - - -
17.11.2019 15:00:00 - - - - - - -
17.11.2019 14:00:00 - - - - - - -
17.11.2019 13:00:00 - - - - - - -
17.11.2019 12:00:00 - - - - - - -
17.11.2019 11:00:00 - - - - - - -
17.11.2019 10:00:00 - - - - - - -
17.11.2019 09:00:00 - - - - - - -
17.11.2019 08:00:00 - - - - - - -
17.11.2019 07:00:00 - - - - - - -
17.11.2019 06:00:00 - - - - - - -
17.11.2019 05:00:00 - - - - - - -
17.11.2019 04:00:00 - - - - - - -
17.11.2019 03:00:00 - - - - - - -
17.11.2019 02:00:00 - - - - - - -
17.11.2019 01:00:00 - - - - - - -
17.11.2019 00:00:00 - - - - - - -
16.11.2019 23:00:00 - - - - - - -
16.11.2019 22:00:00 - - - - - - -
16.11.2019 21:00:00 - - - - - - -
16.11.2019 20:00:00 - - - - - - -
16.11.2019 19:00:00 - - - - - - -
16.11.2019 18:00:00 - - - - - - -
16.11.2019 17:00:00 - - - - - - -
16.11.2019 16:00:00 - - - - - - -
16.11.2019 15:00:00 - - - - - - -
16.11.2019 14:00:00 - - - - - - -
16.11.2019 13:00:00 - - - - - - -
16.11.2019 12:00:00 - - - - - - -
16.11.2019 11:00:00 - - - - - - -
16.11.2019 10:00:00 - - - - - - -
16.11.2019 09:00:00 - - - - - - -
16.11.2019 08:00:00 - - - - - - -
16.11.2019 07:00:00 - - - - - - -
16.11.2019 06:00:00 - - - - - - -
16.11.2019 05:00:00 - - - - - - -
16.11.2019 04:00:00 - - - - - - -

tt = Température de l'air
td = dewpoint
ff = Vitesse du vent
dd = Direction du vent
ppp = reduced air pressure
vv = visibility

stations d'obs. à proximité